Location: Ebersheim
(48.3033°N, 7.4991°E)
Time: 06:24:07
(UTC+00:00)

Cosmos 2227 Rocket - Pass Details

Date: 27 February 2020
Orbit: 839 x 845 km, 71.0° (Epoch: 28 March)

Event Time Altitude Azimuth Distance (km) Brightness Sun altitude
Rises 18:13:22 0° 336° (NNW) 3,407 5.7 -11.3°
Reaches altitude 10° 18:16:16 10° 350° (N) 2,470 4.8 -11.8°
Maximum altitude 18:20:55 26° 45° (NE) 1,626 3.3 -12.6°
Enters shadow 18:23:41 18° 85° (E) 1,962 3.5 -13.0°
